CW7959 Weather Reports


Display with metric or nautical units.
time (UTC)temp
F
wind
direction
speed
MPH
gust
MPH
rain 1hr
in
rain 24hr
in
rain mn
in
humidity
%
barometer
mb
20260505075405 46 223 0.0 0.0 0.00 0.00 0.00 78 1015.8
20260505074905 46 223 0.0 3.0 0.00 0.00 0.00 80 1015.7
20260505074405 46 223 1.0 3.0 0.00 0.00 0.00 81 1015.7
20260505073904 46 223 1.0 3.0 0.00 0.00 0.00 84 1015.8
20260505073405 45 223 1.0 3.0 0.00 0.00 0.00 90 1015.8
20260505072906 44 223 0.0 0.0 0.00 0.00 0.00 92 1015.8
20260505072404 43 223 0.0 0.0 0.00 0.00 0.00 95 1015.8
20260505071905 42 223 0.0 0.0 0.00 0.00 0.00 96 1015.7
20260505071405 41 223 0.0 2.0 0.00 0.00 0.00 95 1015.7
20260505070904 41 223 0.0 0.0 0.00 0.00 0.00 95 1015.7
20260505070404 40 223 0.0 0.0 0.00 0.00 0.00 95 1015.6
20260505065905 40 223 0.0 0.0 0.00 0.00 0.00 95 1015.6
20260505064905 40 223 0.0 0.0 0.00 0.00 0.00 95 1015.6
20260505064404 40 223 0.0 0.0 0.00 0.00 0.00 95 1015.5
20260505062904 40 223 0.0 0.0 0.00 0.00 0.00 96 1015.6
20260505062404 39 223 0.0 0.0 0.00 0.00 0.00 96 1015.6
20260505061405 39 223 0.0 0.0 0.00 0.00 0.00 96 1015.6
20260505060904 39 223 0.0 0.0 0.00 0.00 0.00 96 1015.6
20260505060405 38 223 0.0 0.0 0.00 0.00 0.00 96 1015.5
20260505055906 38 223 0.0 0.0 0.00 0.00 0.00 96 1015.5
20260505055404 38 223 0.0 0.0 0.00 0.00 0.00 95 1015.4
20260505053905 38 223 0.0 0.0 0.00 0.00 0.00 95 1015.4
20260505053404 38 223 0.0 0.0 0.00 0.00 0.00 95 1015.4
20260505052903 38 223 0.0 0.0 0.00 0.00 0.00 95 1015.5
20260505052404 37 223 0.0 0.0 0.00 0.00 0.00 95 1015.3
20260505051904 38 223 0.0 0.0 0.00 0.00 0.00 95 1015.2
20260505051405 38 223 0.0 0.0 0.00 0.00 0.00 95 1015.2
20260505050903 38 223 0.0 0.0 0.00 0.00 0.00 95 1015.2
20260505050405 38 223 0.0 0.0 0.00 0.00 0.00 95 1015.2
20260505041405 40 223 0.0 0.0 0.00 0.00 0.00 95 1014.9
20260505040905 40 223 0.0 0.0 0.00 0.00 0.00 94 1014.9
20260505040403 41 223 0.0 0.0 0.00 0.00 0.00 94 1014.8
20260505035904 41 223 0.0 0.0 0.00 0.00 0.00 94 1014.8
20260505035404 42 223 0.0 0.0 0.00 0.00 0.00 95 1014.9
20260505034903 42 223 0.0 0.0 0.00 0.00 0.00 94 1014.8
20260505033904 43 223 0.0 0.0 0.00 0.00 0.00 95 1014.8
20260505032403 43 223 0.0 0.0 0.00 0.00 0.00 95 1014.8
20260505031904 43 223 0.0 0.0 0.00 0.00 0.00 95 1014.8
20260505030905 43 223 0.0 0.0 0.00 0.00 0.00 95 1014.7
20260505030404 43 223 0.0 0.0 0.00 0.00 0.00 95 1014.6
20260505024904 44 223 0.0 0.0 0.00 0.00 0.00 95 1014.7
20260505024404 44 223 0.0 1.0 0.00 0.00 0.00 96 1014.8
20260505023904 44 223 0.0 0.0 0.00 0.00 0.00 95 1014.8
20260505023404 43 223 0.0 0.0 0.00 0.00 0.00 95 1014.7
20260505022405 43 223 0.0 0.0 0.00 0.00 0.00 96 1014.8
20260505021904 43 223 0.0 0.0 0.00 0.00 0.00 95 1014.8
20260505021404 43 223 0.0 0.0 0.00 0.00 0.00 95 1014.7
20260505020405 43 223 0.0 2.0 0.00 0.00 0.00 95 1014.8
20260505015903 43 223 0.0 0.0 0.00 0.00 0.00 95 1014.8
20260505014405 44 223 0.0 0.0 0.00 0.00 0.00 95 1014.8
20260505012904 45 223 0.0 0.0 0.00 0.00 0.00 95 1014.8
20260505012404 45 223 0.0 0.0 0.00 0.00 0.00 95 1014.8
20260505010405 45 223 0.0 0.0 0.00 0.00 0.00 95 1014.7
20260505005904 45 223 0.0 0.0 0.00 0.00 0.00 95 1014.8
20260505005404 45 223 0.0 0.0 0.00 0.00 0.00 95 1014.7
20260505004404 45 223 0.0 0.0 0.00 0.00 0.00 94 1014.7
20260505003404 46 223 0.0 0.0 0.00 0.00 0.00 95 1014.7
20260505002405 46 223 0.0 0.0 0.00 0.00 0.00 94 1014.7
20260505001905 46 223 0.0 0.0 0.00 0.00 0.00 94 1014.8
20260505001405 46 223 0.0 0.0 0.00 0.00 0.00 94 1014.7
20260505000904 46 223 0.0 0.0 0.00 0.00 0.00 94 1014.8
20260505000406 46 223 0.0 0.0 0.00 0.00 0.00 94 1014.9
20260504235905 46 223 0.0 0.0 0.00 0.00 0.00 94 1014.8
20260504235403 45 223 0.0 0.0 0.00 0.00 0.00 94 1014.8
20260504234905 45 223 0.0 0.0 0.00 0.00 0.00 94 1014.8
20260504233905 45 223 0.0 0.0 0.00 0.00 0.00 94 1014.8
20260504233406 45 223 0.0 0.0 0.00 0.00 0.00 93 1014.7
20260504232405 46 223 0.0 0.0 0.00 0.00 0.00 94 1014.7
20260504231905 46 223 0.0 0.0 0.00 0.00 0.00 94 1014.8
20260504231404 45 223 0.0 0.0 0.00 0.00 0.00 93 1014.7
20260504230906 46 223 0.0 0.0 0.00 0.00 0.00 93 1014.8
20260504230405 46 223 0.0 0.0 0.00 0.00 0.00 93 1014.8
20260504225904 46 223 0.0 2.0 0.00 0.00 0.00 93 1014.8
20260504225405 46 223 0.0 0.0 0.00 0.00 0.00 92 1014.8
20260504224905 46 223 0.0 0.0 0.00 0.00 0.00 92 1014.8
20260504224406 47 223 0.0 0.0 0.00 0.00 0.00 92 1014.9
20260504223905 47 223 0.0 0.0 0.00 0.00 0.00 91 1014.9
20260504223405 47 223 1.0 5.0 0.00 0.00 0.00 92 1014.9
20260504222904 47 223 2.0 3.0 0.00 0.00 0.00 91 1014.9
20260504222405 47 223 1.0 3.0 0.00 0.00 0.00 91 1014.9
20260504221904 47 223 2.0 3.0 0.00 0.00 0.00 91 1014.9
20260504221405 46 223 2.0 5.0 0.00 0.00 0.00 92 1015.0
20260504220905 46 223 2.0 3.0 0.00 0.00 0.00 92 1014.9
20260504215905 46 223 0.0 0.0 0.00 0.00 0.00 91 1015.0
20260504215404 46 223 0.0 0.0 0.00 0.00 0.00 91 1015.0
20260504214905 46 223 1.0 3.0 0.00 0.00 0.00 91 1014.9
20260504213904 47 223 0.0 2.0 0.00 0.00 0.00 90 1015.0
20260504213404 47 223 0.0 0.0 0.00 0.00 0.00 90 1015.0
20260504212904 47 223 0.0 3.0 0.00 0.00 0.00 90 1015.1
20260504212404 47 223 3.0 5.0 0.00 0.00 0.00 90 1015.0
20260504211904 47 223 2.0 6.0 0.00 0.00 0.00 91 1015.1
20260504211405 47 223 3.0 6.0 0.00 0.00 0.00 91 1015.1
20260504210904 47 223 3.0 6.0 0.00 0.00 0.00 90 1015.1
20260504210405 47 223 3.0 5.0 0.00 0.00 0.00 90 1015.2
20260504205904 47 223 5.0 7.0 0.00 0.00 0.00 90 1015.2
20260504204905 47 223 0.0 6.0 0.00 0.00 0.00 91 1015.2
20260504204405 47 223 3.0 6.0 0.00 0.00 0.00 91 1015.3
20260504203905 47 223 3.0 5.0 0.00 0.00 0.00 90 1015.3
20260504203404 48 223 3.0 6.0 0.00 0.00 0.00 90 1015.2
20260504202405 48 223 4.0 7.0 0.00 0.00 0.00 88 1015.1
20260504201905 48 223 1.0 5.0 0.00 0.00 0.00 87 1015.0
20260504201406 48 223 0.0 2.0 0.00 0.00 0.00 87 1015.0
20260504200406 48 223 2.0 3.0 0.00 0.00 0.00 87 1015.1
20260504195905 48 223 1.0 6.0 0.00 0.00 0.00 86 1015.0
20260504195405 49 223 4.0 6.0 0.00 0.00 0.00 85 1015.0
20260504194906 49 224 0.0 3.0 0.00 0.00 0.00 86 1015.0
20260504194405 49 224 0.0 3.0 0.00 0.00 0.00 85 1014.9
20260504193906 49 224 1.0 3.0 0.00 0.00 0.00 87 1015.0
20260504192905 49 224 1.0 3.0 0.00 0.00 0.00 86 1015.0
20260504192405 49 224 2.0 3.0 0.00 0.00 0.00 85 1015.0
20260504191904 49 224 1.0 3.0 0.00 0.00 0.00 85 1015.1
20260504191405 49 224 0.0 1.0 0.00 0.00 0.00 86 1015.0
20260504190906 50 224 1.0 3.0 0.00 0.00 0.00 86 1014.9
20260504190405 50 224 0.0 7.0 0.00 0.00 0.00 87 1014.9
20260504185906 50 227 5.0 9.0 0.00 0.00 0.00 85 1014.8
20260504185404 50 236 5.0 7.0 0.00 0.00 0.00 86 1014.7
20260504184906 50 242 1.0 5.0 0.00 0.00 0.00 87 1014.6
20260504184406 50 242 3.0 5.0 0.00 0.00 0.00 86 1014.6
20260504183906 50 242 3.0 6.0 0.00 0.00 0.00 86 1014.6
20260504182905 51 242 1.0 3.0 0.00 0.00 0.00 86 1014.6
20260504182405 51 242 1.0 3.0 0.00 0.00 0.00 87 1014.7
20260504181905 51 242 0.0 1.0 0.00 0.00 0.00 89 1014.5
20260504180904 49 228 2.0 6.0 0.00 0.00 0.00 87 1014.7
20260504180405 50 220 2.0 9.0 0.00 0.00 0.00 85 1014.7
20260504175906 50 213 2.0 8.0 0.00 0.00 0.00 85 1014.7
20260504175405 50 209 1.0 3.0 0.00 0.00 0.00 86 1014.6
20260504174904 50 209 5.0 7.0 0.00 0.00 0.00 86 1014.5
20260504174405 50 209 2.0 5.0 0.00 0.00 0.00 87 1014.6
20260504173905 50 209 2.0 7.0 0.00 0.00 0.00 87 1014.6
20260504173405 50 209 5.0 8.0 0.00 0.00 0.00 87 1014.7
20260504172905 50 211 4.0 8.0 0.00 0.00 0.00 88 1014.6
20260504172405 50 211 4.0 7.0 0.00 0.00 0.00 87 1014.6
20260504171905 50 211 2.0 6.0 0.00 0.00 0.00 87 1014.6
20260504170404 50 211 2.0 7.0 0.00 0.00 0.00 85 1014.6
20260504150905 52 202 2.0 5.0 0.00 0.05 0.00 83 1014.9
20260504150405 52 202 1.0 3.0 0.00 0.05 0.00 83 1014.9
20260504140907 54 213 6.0 10.0 0.00 0.05 0.00 79 1014.9
20260504140405 53 209 6.0 7.0 0.00 0.05 0.00 79 1014.9
20260504110405 53 209 5.0 9.0 0.00 0.05 0.00 68 1015.0
20260504100405 52 217 5.0 9.0 0.00 0.05 0.00 69 1015.1
20260504081905 46 232 3.0 7.0 0.00 0.05 0.00 94 1015.1
20260504081404 46 243 2.0 7.0 0.00 0.05 0.00 96 1015.1
20260504080905 45 245 3.0 5.0 0.00 0.05 0.00 97 1015.1
20260504080404 45 245 1.0 3.0 0.00 0.05 0.00 97 1015.1